Location: Pedimozza
(42.0500°N, 9.3500°E)
Time: 21:42:01
(UTC+00:00)

Cosmos 1980 Rocket - Pass Details

Date: 19 August 2019
Orbit: 829 x 850 km, 71.0° (Epoch: 17 September)

Event Time Altitude Azimuth Distance (km) Brightness Sun altitude
Rises 23:16:42 0° 320° (NW) 3,392 6.0 -35.3°
Reaches altitude 10° 23:19:47 10° 304° (NW) 2,456 5.0 -35.3°
Enters shadow 23:21:13 15° 291° (WNW) 2,132 4.5 -35.3°
